Syracuse, NY

10:13 PM EST on February 20, 2017 (GMT -0500)
Syracuse Hancock International

Weather History for KSYR - August, 2013

Change the Weather History Date:

Monday, August 19, 2013

  Actual Average Record
Temperature  
Mean Temperature 71 °F 70 °F  
Max Temperature 83 °F 80 °F 94 °F (1936)
Min Temperature 59 °F 60 °F 46 °F (1977)
Degree Days  
Heating Degree Days 0 1  
Month to date heating degree days 3 6  
Since 1 June heating degree days 67 75  
Since 1 July heating degree days 6 14  
Cooling Degree Days 6 5  
Month to date cooling degree days 69 111  
Year to date cooling degree days 548 457  
Since 1 June cooling degree days 496 427  
Growing Degree Days 20 (Base 50)    
Moisture  
Dew Point 58 °F    
Average Humidity 65    
Maximum Humidity 90    
Minimum Humidity 40    
Precipitation  
Precipitation T in 0.12 in 1.15 in (1956)
Month to date precipitation 1.29 2.20  
Year to date precipitation 25.29 23.22  
Snow  
Snow 0.00 in 0.00 in 0.00 in (2002)
Month to date snowfall 0.0 0.0  
Since 1 June snowfall 0.0 0.0  
Since 1 July snowfall 0.0 0.0  
Snow Depth 0.00 in    
Sea Level Pressure  
Sea Level Pressure 30.06 in    
Wind  
Wind Speed 4 mph (WNW)    
Max Wind Speed 13 mph    
Max Gust Speed 17 mph    
Visibility 10 miles    
Events      
T = Trace of Precipitation, MM = Missing Value Source: NWS Daily Summary

Daily Weather History Graph

Daily Weather History Graph

Search for Another Location

Airport or City:

Trip Planner

Search our weather history database for the weather conditions in past years. The results will help you decide how hot, cold, wet, or windy it might be!

Date:

Astronomy

Aug. 19, 2013 Rise Set
Actual Time 6:14 AM EDT 8:00 PM EDT
Civil Twilight 5:44 AM EDT 8:30 PM EDT
Nautical Twilight 5:07 AM EDT 9:07 PM EDT
Astronomical Twilight 4:27 AM EDT 9:47 PM EDT
Moon 6:49 PM EDT (8/19) 4:30 AM EDT (8/19)
Length of Visible Light 14h 46m
Length of Day
13h 45m
Waxing Gibbous, 97% of the Moon is Illuminated
Aug 19
Waxing Gibbous
Aug 20
Full
Aug 28
Last Quarter
Sep 5
New
Sep 12
First Quarter

Hourly Weather History & Observations

Time (EDT) Temp. Heat Index Dew Point Humidity Pressure Visibility Wind Dir Wind Speed Gust Speed Precip Events Conditions
12:54 AM 64.0 °F - 59.0 °F 84% 30.10 in 10.0 mi Calm Calm - N/A   Mostly Cloudy
1:54 AM 64.0 °F - 59.0 °F 84% 30.09 in 10.0 mi Calm Calm - N/A   Mostly Cloudy
2:54 AM 66.0 °F - 57.9 °F 75% 30.09 in 10.0 mi Calm Calm - N/A   Overcast
3:54 AM 63.0 °F - 59.0 °F 87% 30.08 in 10.0 mi Calm Calm - N/A   Overcast
4:54 AM 62.1 °F - 59.0 °F 90% 30.08 in 10.0 mi Calm Calm - N/A   Overcast
5:54 AM 61.0 °F - 57.9 °F 90% 30.09 in 10.0 mi Calm Calm - N/A   Mostly Cloudy
6:54 AM 60.1 °F - 57.0 °F 90% 30.10 in 10.0 mi Calm Calm - N/A   Mostly Cloudy
7:54 AM 64.0 °F - 60.1 °F 87% 30.10 in 10.0 mi Calm Calm - N/A   Mostly Cloudy
8:54 AM 71.1 °F - 61.0 °F 70% 30.09 in 10.0 mi WSW 6.9 mph - N/A   Scattered Clouds
9:54 AM 73.0 °F - 61.0 °F 66% 30.08 in 10.0 mi SW 5.8 mph - N/A   Scattered Clouds
10:54 AM 75.9 °F - 62.1 °F 62% 30.07 in 10.0 mi WSW 5.8 mph - N/A   Scattered Clouds
11:54 AM 79.0 °F - 59.0 °F 50% 30.06 in 10.0 mi West 3.5 mph - N/A   Scattered Clouds
12:54 PM 81.0 °F 80.7 °F 55.0 °F 41% 30.05 in 10.0 mi SW 8.1 mph - N/A   Mostly Cloudy
1:54 PM 82.0 °F 81.4 °F 55.0 °F 39% 30.04 in 10.0 mi Variable 6.9 mph - N/A   Mostly Cloudy
2:54 PM 82.9 °F 82.1 °F 55.9 °F 39% 30.02 in 10.0 mi WNW 10.4 mph - N/A   Mostly Cloudy
3:54 PM 79.0 °F - 59.0 °F 50% 30.02 in 10.0 mi NW 6.9 mph - N/A   Mostly Cloudy
4:54 PM 81.0 °F 81.3 °F 59.0 °F 47% 30.02 in 10.0 mi NW 9.2 mph - N/A   Scattered Clouds
5:54 PM 81.0 °F 81.0 °F 57.0 °F 44% 30.01 in 10.0 mi WNW 8.1 mph - N/A   Scattered Clouds
6:07 PM 80.6 °F 80.8 °F 57.2 °F 45% 30.03 in 10.0 mi NW 10.4 mph - N/A   Partly Cloudy
6:54 PM 78.1 °F - 55.9 °F 46% 30.01 in 10.0 mi NNW 8.1 mph - N/A   Partly Cloudy
7:54 PM 73.0 °F - 57.0 °F 57% 30.01 in 10.0 mi NNW 4.6 mph - N/A   Scattered Clouds
8:54 PM 71.1 °F - 55.9 °F 59% 30.02 in 10.0 mi Calm Calm - N/A   Scattered Clouds
9:54 PM 68.0 °F - 57.9 °F 70% 30.03 in 10.0 mi Calm Calm - N/A   Mostly Cloudy
10:54 PM 66.0 °F - 57.9 °F 75% 30.04 in 10.0 mi Calm Calm - N/A   Scattered Clouds
11:54 PM 64.9 °F - 59.0 °F 81% 30.04 in 10.0 mi SSE 3.5 mph - N/A   Partly Cloudy